When you browse on this site, cookies collect data to enhance your experience and personalize the content and advertising you see.
Visit our Privacy Policy to learn more. By continuing to use the site, you agree to this use of cookies and data.

Meteo pe oră la Skarżysko-Kamienna

Astăzi, 4 August, Marţi

Timp Temperatura Precipitaţii Vânt Presiune Umiditate
00:00 +17°C° 0 mm 2 m/s 735 mmHg 97%
01:00 +19°C° 0 mm 1 m/s 735 mmHg 99%
02:00 +19°C° 0.2 mm 1 m/s 735 mmHg 98%
03:00 +19°C° 0.2 mm 1 m/s 735 mmHg 98%
04:00 +19°C° 0.2 mm 1 m/s 735 mmHg 98%
05:00 +18°C° 0.2 mm 2 m/s 735 mmHg 97%
06:00 +18°C° 0.2 mm 2 m/s 734 mmHg 95%
07:00 +19°C° 0 mm 2 m/s 735 mmHg 94%
08:00 +19°C° 0.5 mm 2 m/s 735 mmHg 92%
09:00 +20°C° 0.5 mm 2 m/s 734 mmHg 90%
10:00 +20°C° 0.5 mm 3 m/s 734 mmHg 87%
11:00 +21°C° 0.4 mm 3 m/s 735 mmHg 84%
12:00 +22°C° 0.4 mm 3 m/s 735 mmHg 81%
13:00 +24°C° 0 mm 3 m/s 735 mmHg 71%
14:00 +24°C° 0 mm 3 m/s 736 mmHg 74%
15:00 +22°C° 0 mm 4 m/s 736 mmHg 77%
16:00 +22°C° 0 mm 4 m/s 736 mmHg 80%
17:00 +21°C° 0 mm 4 m/s 737 mmHg 83%
18:00 +19°C° 0 mm 5 m/s 737 mmHg 86%
19:00 +17°C° 0 mm 5 m/s 738 mmHg 89%
20:00 +18°C° 0 mm 4 m/s 738 mmHg 90%
21:00 +17°C° 0 mm 4 m/s 739 mmHg 90%
22:00 +17°C° 0 mm 3 m/s 740 mmHg 91%
23:00 +17°C° 0 mm 3 m/s 740 mmHg 91%

Mâine, 5 August, Miercuri

Timp Temperatura Precipitaţii Vânt Presiune Umiditate
00:00 +16°C° 0 mm 3 m/s 741 mmHg 91%
01:00 +16°C° 0 mm 3 m/s 741 mmHg 91%
02:00 +14°C° 0 mm 3 m/s 742 mmHg 92%
03:00 +14°C° 0 mm 3 m/s 742 mmHg 92%
04:00 +13°C° 0 mm 3 m/s 742 mmHg 93%
05:00 +14°C° 0 mm 3 m/s 742 mmHg 87%
06:00 +14°C° 0 mm 3 m/s 743 mmHg 81%
07:00 +15°C° 0 mm 4 m/s 743 mmHg 74%
08:00 +17°C° 0 mm 3 m/s 743 mmHg 68%
09:00 +19°C° 0 mm 3 m/s 744 mmHg 61%
10:00 +20°C° 0 mm 3 m/s 744 mmHg 55%
11:00 +21°C° 0 mm 3 m/s 744 mmHg 53%
12:00 +22°C° 0 mm 3 m/s 744 mmHg 50%
13:00 +24°C° 0 mm 3 m/s 744 mmHg 48%
14:00 +24°C° 0 mm 3 m/s 744 mmHg 49%
15:00 +24°C° 0 mm 3 m/s 744 mmHg 50%
16:00 +23°C° 0 mm 4 m/s 744 mmHg 51%
17:00 +21°C° 0 mm 3 m/s 744 mmHg 57%
18:00 +20°C° 0 mm 3 m/s 744 mmHg 63%
19:00 +19°C° 0 mm 2 m/s 744 mmHg 69%
20:00 +18°C° 0 mm 2 m/s 745 mmHg 70%
21:00 +17°C° 0 mm 2 m/s 745 mmHg 71%
22:00 +16°C° 0 mm 2 m/s 745 mmHg 72%
23:00 +16°C° 0 mm 2 m/s 745 mmHg 74%

Poimâine, 6 August, Joi

Timp Temperatura Precipitaţii Vânt Presiune Umiditate
00:00 +16°C° 0 mm 2 m/s 745 mmHg 76%
01:00 +15°C° 0 mm 2 m/s 745 mmHg 77%
02:00 +15°C° 0 mm 2 m/s 745 mmHg 80%
03:00 +15°C° 0 mm 2 m/s 745 mmHg 83%
04:00 +15°C° 0 mm 2 m/s 745 mmHg 86%
05:00 +16°C° 0 mm 3 m/s 745 mmHg 83%
06:00 +18°C° 0 mm 3 m/s 746 mmHg 81%
07:00 +19°C° 0 mm 3 m/s 746 mmHg 78%
08:00 +21°C° 0 mm 4 m/s 746 mmHg 75%
09:00 +23°C° 0 mm 4 m/s 746 mmHg 71%
10:00 +25°C° 0 mm 4 m/s 747 mmHg 68%
11:00 +26°C° 0 mm 4 m/s 746 mmHg 66%
12:00 +27°C° 0 mm 4 m/s 746 mmHg 63%
13:00 +28°C° 0 mm 4 m/s 746 mmHg 61%
14:00 +28°C° 0 mm 4 m/s 746 mmHg 61%
15:00 +28°C° 0 mm 4 m/s 746 mmHg 60%
16:00 +28°C° 0 mm 4 m/s 746 mmHg 60%
17:00 +27°C° 0.1 mm 4 m/s 746 mmHg 67%
18:00 +25°C° 0.1 mm 4 m/s 746 mmHg 74%
19:00 +24°C° 0.1 mm 3 m/s 746 mmHg 82%
20:00 +22°C° 0 mm 3 m/s 746 mmHg 85%
21:00 +21°C° 0 mm 3 m/s 747 mmHg 88%
22:00 +20°C° 0 mm 3 m/s 747 mmHg 91%
23:00 +20°C° 0 mm 3 m/s 747 mmHg 93%

7 August, Vineri

Timp Temperatura Precipitaţii Vânt Presiune Umiditate
00:00 +19°C° 0 mm 2 m/s 747 mmHg 94%
01:00 +19°C° 0 mm 2 m/s 747 mmHg 95%
02:00 +19°C° 0 mm 2 m/s 747 mmHg 96%
03:00 +18°C° 0 mm 2 m/s 747 mmHg 96%
04:00 +18°C° 0 mm 2 m/s 747 mmHg 96%
05:00 +19°C° 0 mm 2 m/s 747 mmHg 92%
06:00 +20°C° 0 mm 3 m/s 748 mmHg 88%
07:00 +21°C° 0 mm 3 m/s 748 mmHg 84%
08:00 +24°C° 0 mm 3 m/s 748 mmHg 76%
09:00 +26°C° 0 mm 3 m/s 748 mmHg 68%
10:00 +28°C° 0 mm 3 m/s 748 mmHg 60%
11:00 +28°C° 0.1 mm 3 m/s 748 mmHg 59%
12:00 +29°C° 0.1 mm 3 m/s 748 mmHg 58%
13:00 +29°C° 0.1 mm 3 m/s 747 mmHg 56%
14:00 +29°C° 0.5 mm 3 m/s 747 mmHg 58%
15:00 +29°C° 0.5 mm 3 m/s 747 mmHg 60%
16:00 +28°C° 0.5 mm 3 m/s 746 mmHg 61%
17:00 +27°C° 0.3 mm 3 m/s 746 mmHg 69%
18:00 +25°C° 0.3 mm 3 m/s 746 mmHg 76%
19:00 +24°C° 0.3 mm 3 m/s 746 mmHg 83%
20:00 +22°C° 0 mm 3 m/s 746 mmHg 86%
21:00 +21°C° 0 mm 2 m/s 746 mmHg 89%
22:00 +20°C° 0 mm 2 m/s 746 mmHg 91%
23:00 +20°C° 0 mm 2 m/s 746 mmHg 92%

8 August, Sâmbătă

Timp Temperatura Precipitaţii Vânt Presiune Umiditate
00:00 +19°C° 0 mm 2 m/s 746 mmHg 92%
01:00 +19°C° 0 mm 2 m/s 746 mmHg 92%
02:00 +18°C° 0 mm 2 m/s 746 mmHg 92%
03:00 +18°C° 0 mm 2 m/s 746 mmHg 92%
04:00 +18°C° 0 mm 2 m/s 745 mmHg 93%
05:00 +19°C° 0 mm 2 m/s 746 mmHg 88%
06:00 +20°C° 0 mm 2 m/s 746 mmHg 84%
07:00 +21°C° 0 mm 2 m/s 746 mmHg 80%
08:00 +24°C° 0 mm 2 m/s 746 mmHg 74%
09:00 +26°C° 0 mm 3 m/s 745 mmHg 67%
10:00 +27°C° 0 mm 3 m/s 745 mmHg 61%
11:00 +28°C° 1.2 mm 3 m/s 745 mmHg 61%
12:00 +28°C° 1.2 mm 3 m/s 745 mmHg 61%
13:00 +28°C° 1.2 mm 3 m/s 744 mmHg 61%
14:00 +28°C° 1.4 mm 3 m/s 744 mmHg 62%
15:00 +28°C° 1.4 mm 3 m/s 744 mmHg 64%
16:00 +27°C° 1.4 mm 3 m/s 743 mmHg 65%
17:00 +26°C° 0.5 mm 3 m/s 743 mmHg 70%
18:00 +25°C° 0.5 mm 2 m/s 743 mmHg 75%
19:00 +23°C° 0.5 mm 2 m/s 743 mmHg 81%
20:00 +21°C° 0 mm 2 m/s 743 mmHg 82%
21:00 +21°C° 0 mm 2 m/s 743 mmHg 84%
22:00 +21°C° 0 mm 1 m/s 743 mmHg 86%
23:00 +21°C° 0 mm 1 m/s 743 mmHg 87%

9 August, Duminică

Timp Temperatura Precipitaţii Vânt Presiune Umiditate
00:00 +20°C° 0 mm 1 m/s 743 mmHg 88%
01:00 +20°C° 0 mm 1 m/s 743 mmHg 89%
02:00 +19°C° 0 mm 1 m/s 742 mmHg 90%
03:00 +19°C° 0 mm 1 m/s 742 mmHg 91%
04:00 +19°C° 0 mm 1 m/s 742 mmHg 92%
05:00 +20°C° 0 mm 1 m/s 742 mmHg 87%
06:00 +21°C° 0 mm 1 m/s 742 mmHg 83%
07:00 +23°C° 0 mm 1 m/s 742 mmHg 78%
08:00 +24°C° 0.4 mm 2 m/s 742 mmHg 72%
09:00 +25°C° 0.4 mm 2 m/s 742 mmHg 67%
10:00 +26°C° 0.4 mm 2 m/s 742 mmHg 61%
11:00 +27°C° 0.4 mm 2 m/s 742 mmHg 59%
12:00 +27°C° 0.4 mm 2 m/s 742 mmHg 56%
13:00 +28°C° 0.4 mm 2 m/s 741 mmHg 54%
14:00 +28°C° 0.3 mm 2 m/s 741 mmHg 55%
15:00 +27°C° 0.3 mm 3 m/s 741 mmHg 56%
16:00 +27°C° 0.3 mm 3 m/s 741 mmHg 57%
17:00 +26°C° 0.7 mm 2 m/s 741 mmHg 64%
18:00 +24°C° 0.7 mm 2 m/s 741 mmHg 71%
19:00 +22°C° 0.7 mm 1 m/s 741 mmHg 77%
20:00 +22°C° 0.4 mm 1 m/s 741 mmHg 80%
21:00 +21°C° 0.4 mm 1 m/s 741 mmHg 82%
22:00 +20°C° 0.4 mm 1 m/s 741 mmHg 84%
23:00 +20°C° 0 mm 1 m/s 740 mmHg 86%
Arată mai mult